PPFGA SBIH-SBHT

Flight info

Callsign PPFGA
Flight time N/A
Altitude 23000
Route FAVOR Z13 EVRIS
Aircraft TBM9/L-SDFGRWY/S

Departure

Time 2026-04-18 00:21
Airport Itaituba Airport (SBIH)

Arrival

Time N/A
Airport Altamira Interstate Airport (SBHT)
Time Latitude Longitude Altitude Speed Heading
2026-04-17 23:58 -4.24560 -56.00574 111 ft 0 kts 305°
2026-04-18 00:13 -4.24558 -56.00577 109 ft 2 kts 307°
2026-04-18 00:13 -4.24528 -56.00578 113 ft 8 kts 38°
2026-04-18 00:13 -4.24460 -56.00527 112 ft 16 kts 45°
2026-04-18 00:14 -4.24454 -56.00501 112 ft 2 kts 112°
2026-04-18 00:14 -4.24452 -56.00466 112 ft 9 kts 73°
2026-04-18 00:14 -4.24394 -56.00415 111 ft 14 kts 41°
2026-04-18 00:14 -4.24299 -56.00343 110 ft 20 kts 39°
2026-04-18 00:15 -4.24175 -56.00243 109 ft 26 kts 37°
2026-04-18 00:15 -4.24020 -56.00123 107 ft 31 kts 38°
2026-04-18 00:15 -4.23878 -55.99996 106 ft 20 kts 75°
2026-04-18 00:15 -4.23884 -55.99877 105 ft 0 kts 126°
2026-04-18 00:19 -4.23896 -55.99859 108 ft 10 kts 118°
2026-04-18 00:19 -4.23839 -55.99784 105 ft 19 kts 36°
2026-04-18 00:19 -4.23722 -55.99694 103 ft 23 kts 37°
2026-04-18 00:19 -4.23604 -55.99621 102 ft 13 kts
2026-04-18 00:20 -4.23596 -55.99602 102 ft 5 kts 207°
2026-04-18 00:20 -4.23631 -55.99626 102 ft 8 kts 212°
2026-04-18 00:20 -4.23816 -55.99765 105 ft 65 kts 218°
2026-04-18 00:20 -4.24313 -56.00152 169 ft 112 kts 221°
2026-04-18 00:21 -4.24983 -56.00699 435 ft 135 kts 219°
2026-04-18 00:21 -4.25789 -56.01268 882 ft 146 kts 219°
2026-04-18 00:21 -4.26671 -56.01861 1340 ft 150 kts 216°
2026-04-18 00:21 -4.27592 -56.02299 1889 ft 146 kts 192°
2026-04-18 00:22 -4.28593 -56.02240 2418 ft 144 kts 169°
2026-04-18 00:22 -4.29646 -56.01917 2335 ft 185 kts 155°
2026-04-18 00:22 -4.30529 -56.00928 2547 ft 194 kts 111°
2026-04-18 00:22 -4.30548 -55.99620 2994 ft 188 kts 70°
2026-04-18 00:23 -4.29746 -55.98634 3435 ft 183 kts 34°
2026-04-18 00:23 -4.28664 -55.97977 3898 ft 180 kts 31°
2026-04-18 00:23 -4.27591 -55.97346 4362 ft 178 kts 31°
2026-04-18 00:23 -4.26526 -55.96723 4821 ft 176 kts 31°
2026-04-18 00:24 -4.25482 -55.96114 5267 ft 175 kts 31°
2026-04-18 00:24 -4.24465 -55.95449 5728 ft 174 kts 40°
2026-04-18 00:24 -4.23608 -55.94609 6195 ft 172 kts 51°
2026-04-18 00:24 -4.22965 -55.93610 6639 ft 170 kts 67°
2026-04-18 00:25 -4.22596 -55.92488 7075 ft 169 kts 75°
2026-04-18 00:25 -4.22291 -55.91347 7519 ft 169 kts 75°
2026-04-18 00:25 -4.21985 -55.90213 7967 ft 168 kts 75°
2026-04-18 00:25 -4.21678 -55.89082 8424 ft 168 kts 75°
2026-04-18 00:26 -4.21374 -55.87968 8878 ft 167 kts 75°
2026-04-18 00:26 -4.21066 -55.86844 9346 ft 167 kts 75°
2026-04-18 00:26 -4.20761 -55.85725 9812 ft 166 kts 75°
2026-04-18 00:26 -4.20454 -55.84603 10242 ft 166 kts 75°
2026-04-18 00:27 -4.20151 -55.83496 10679 ft 164 kts 75°
2026-04-18 00:27 -4.19850 -55.82394 11115 ft 163 kts 75°
2026-04-18 00:27 -4.19551 -55.81299 11560 ft 162 kts 75°
2026-04-18 00:27 -4.19249 -55.80210 12008 ft 162 kts 75°
2026-04-18 00:28 -4.18952 -55.79128 12465 ft 161 kts 75°
2026-04-18 00:28 -4.18660 -55.78053 12932 ft 159 kts 75°
2026-04-18 00:28 -4.18369 -55.76989 13404 ft 158 kts 75°
2026-04-18 00:28 -4.18081 -55.75936 13853 ft 156 kts 75°
2026-04-18 00:29 -4.17797 -55.74897 14273 ft 154 kts 75°
2026-04-18 00:29 -4.17517 -55.73873 14703 ft 151 kts 75°
2026-04-18 00:29 -4.17241 -55.72867 15129 ft 148 kts 75°
2026-04-18 00:29 -4.16975 -55.71895 15558 ft 145 kts 75°
2026-04-18 00:30 -4.16710 -55.70933 16001 ft 141 kts 75°
2026-04-18 00:30 -4.16455 -55.70002 16446 ft 136 kts 75°
2026-04-18 00:30 -4.16208 -55.69103 16894 ft 131 kts 75°
2026-04-18 00:30 -4.15972 -55.68249 17346 ft 123 kts 75°
2026-04-18 00:31 -4.15749 -55.67449 17796 ft 114 kts 75°
2026-04-18 00:31 -4.15544 -55.66725 18227 ft 100 kts 74°
2026-04-18 00:31 -4.15366 -55.66117 18534 ft 84 kts 74°
2026-04-18 00:31 -4.15213 -55.65589 17425 ft 56 kts 93°
2026-04-18 00:32 -4.15042 -55.65436 13347 ft 22 kts 258°
2026-04-18 00:32 -4.14994 -55.65434 9070 ft 9 kts 94°
2026-04-18 00:32 -4.14996 -55.65457 5062 ft 7 kts
2026-04-18 00:32 -4.15007 -55.65478 1262 ft 10 kts 254°
2026-04-18 00:33 -4.15711 -55.66454 1242 ft 249 kts 240°
2026-04-18 00:33 -4.16231 -55.68094 1251 ft 248 kts 264°
2026-04-18 00:33 -4.16226 -55.69798 1256 ft 248 kts 275°
2026-04-18 00:33 -4.16005 -55.71507 1260 ft 248 kts 280°
2026-04-18 00:34 -4.15683 -55.73199 1263 ft 247 kts 282°
2026-04-18 00:34 -4.15296 -55.74885 1264 ft 248 kts 284°
2026-04-18 00:34 -4.14858 -55.76559 1266 ft 248 kts 286°
2026-04-18 00:34 -4.14371 -55.78219 1267 ft 248 kts 288°
2026-04-18 00:35 -4.13838 -55.79868 1269 ft 248 kts 289°
2026-04-18 00:35 -4.13260 -55.81499 1268 ft 248 kts 291°
2026-04-18 00:35 -4.12635 -55.83111 1267 ft 249 kts 292°
2026-04-18 00:35 -4.11973 -55.84692 1267 ft 249 kts 294°
2026-04-18 00:36 -4.11263 -55.86268 1269 ft 248 kts 296°
2026-04-18 00:36 -4.10510 -55.87824 1268 ft 248 kts 297°
2026-04-18 00:36 -4.09714 -55.89359 1269 ft 248 kts 298°
2026-04-18 00:36 -4.08877 -55.90871 1269 ft 248 kts 300°
2026-04-18 00:37 -4.07999 -55.92361 1267 ft 248 kts 302°
2026-04-18 00:37 -4.07081 -55.93823 1267 ft 248 kts 303°
2026-04-18 00:37 -4.06121 -55.95262 1267 ft 248 kts 305°
2026-04-18 00:37 -4.05125 -55.96667 1268 ft 248 kts 307°
2026-04-18 00:38 -4.04084 -55.98053 1270 ft 249 kts 308°
2026-04-18 00:38 -4.03009 -55.99413 1270 ft 248 kts 310°
2026-04-18 00:38 -4.01895 -56.00736 1270 ft 249 kts 311°
2026-04-18 00:38 -4.00747 -56.02032 1269 ft 248 kts 313°
2026-04-18 00:39 -3.99565 -56.03291 1267 ft 248 kts 315°
2026-04-18 00:39 -3.98347 -56.04515 1268 ft 248 kts 316°
2026-04-18 00:39 -3.97115 -56.05693 1265 ft 248 kts 317°
2026-04-18 00:39 -3.95833 -56.06854 1266 ft 248 kts 319°
2026-04-18 00:40 -3.94520 -56.07979 1268 ft 248 kts 320°
2026-04-18 00:40 -3.93175 -56.09063 1266 ft 248 kts 322°
2026-04-18 00:40 -3.91798 -56.10112 1264 ft 248 kts 324°
2026-04-18 00:40 -3.90392 -56.11124 1266 ft 249 kts 325°
2026-04-18 00:41 -3.88957 -56.12091 1267 ft 249 kts 327°
2026-04-18 00:41 -3.87495 -56.13017 1270 ft 249 kts 329°
2026-04-18 00:41 -3.86007 -56.13905 1268 ft 249 kts 330°
2026-04-18 00:41 -3.84491 -56.14749 1268 ft 249 kts 332°
2026-04-18 00:42 -3.82956 -56.15548 1267 ft 248 kts 333°
2026-04-18 00:42 -3.82528 -56.15761 1267 ft 247 kts 334°